AVA8562 SKBO-SKBG

Flight info

Callsign AVA8562
Flight time 1h 3m
Altitude 23000
Route DANSA4R KOVBU A567 OPROG OPROG1B
Aircraft A320/M-SDE3FGHIRWY/LB1

Departure

Time 2026-05-06 00:29
Airport El Dorado International Airport (SKBO)

Arrival

Time 2026-05-06 01:32
Airport Palonegro Airport (SKBG)
Time Latitude Longitude Altitude Speed Heading
2026-05-06 00:12 4.69734 -74.14466 8339 ft 0 kts 37°
2026-05-06 00:18 4.69730 -74.14469 8366 ft 2 kts 37°
2026-05-06 00:18 4.69717 -74.14479 8366 ft 2 kts 37°
2026-05-06 00:19 4.69704 -74.14488 8366 ft 2 kts 36°
2026-05-06 00:19 4.69689 -74.14496 8366 ft 2 kts 333°
2026-05-06 00:19 4.69678 -74.14486 8366 ft 0 kts 309°
2026-05-06 00:21 4.69685 -74.14493 8366 ft 2 kts 309°
2026-05-06 00:21 4.69705 -74.14520 8366 ft 7 kts 308°
2026-05-06 00:22 4.69730 -74.14552 8366 ft 5 kts 307°
2026-05-06 00:22 4.69753 -74.14582 8366 ft 8 kts 307°
2026-05-06 00:22 4.69798 -74.14643 8366 ft 13 kts 307°
2026-05-06 00:22 4.69852 -74.14714 8366 ft 13 kts 306°
2026-05-06 00:23 4.69906 -74.14778 8366 ft 10 kts 337°
2026-05-06 00:23 4.69967 -74.14749 8366 ft 13 kts 38°
2026-05-06 00:23 4.70078 -74.14666 8366 ft 22 kts 38°
2026-05-06 00:23 4.70194 -74.14577 8366 ft 22 kts 37°
2026-05-06 00:24 4.70317 -74.14484 8366 ft 22 kts 37°
2026-05-06 00:24 4.70424 -74.14404 8366 ft 10 kts 36°
2026-05-06 00:24 4.70474 -74.14394 8367 ft 7 kts 334°
2026-05-06 00:24 4.70504 -74.14430 8367 ft 9 kts 307°
2026-05-06 00:25 4.70558 -74.14502 8367 ft 16 kts 307°
2026-05-06 00:25 4.70631 -74.14597 8367 ft 18 kts 307°
2026-05-06 00:25 4.70705 -74.14694 8366 ft 19 kts 307°
2026-05-06 00:25 4.70786 -74.14802 8366 ft 20 kts 307°
2026-05-06 00:26 4.70872 -74.14917 8366 ft 21 kts 307°
2026-05-06 00:26 4.70963 -74.15037 8366 ft 22 kts 307°
2026-05-06 00:26 4.71055 -74.15160 8366 ft 17 kts 307°
2026-05-06 00:26 4.71110 -74.15211 8367 ft 8 kts 342°
2026-05-06 00:27 4.71156 -74.15216 8366 ft 6 kts 355°
2026-05-06 00:27 4.71187 -74.15218 8366 ft 4 kts 355°
2026-05-06 00:27 4.71218 -74.15221 8366 ft 6 kts 354°
2026-05-06 00:27 4.71263 -74.15226 8366 ft 9 kts 354°
2026-05-06 00:28 4.71314 -74.15200 8366 ft 9 kts 64°
2026-05-06 00:28 4.71290 -74.15141 8365 ft 10 kts 127°
2026-05-06 00:28 4.71230 -74.15062 8365 ft 28 kts 127°
2026-05-06 00:28 4.70958 -74.14700 8365 ft 99 kts 127°
2026-05-06 00:29 4.70426 -74.13998 8366 ft 152 kts 127°
2026-05-06 00:29 4.69704 -74.13040 8420 ft 188 kts 127°
2026-05-06 00:29 4.68922 -74.11971 9113 ft 185 kts 120°
2026-05-06 00:29 4.68560 -74.10785 9887 ft 178 kts 90°
2026-05-06 00:30 4.68925 -74.09560 10155 ft 199 kts 54°
2026-05-06 00:30 4.70124 -74.08746 10304 ft 226 kts 15°
2026-05-06 00:30 4.71752 -74.08495 10566 ft 244 kts 12°
2026-05-06 00:30 4.73424 -74.08121 11094 ft 248 kts 17°
2026-05-06 00:31 4.75088 -74.07653 11828 ft 249 kts 19°
2026-05-06 00:31 4.76744 -74.07138 12590 ft 250 kts 20°
2026-05-06 00:31 4.78404 -74.06597 13314 ft 252 kts 21°
2026-05-06 00:31 4.80091 -74.06035 13744 ft 270 kts 21°
2026-05-06 00:32 4.81947 -74.05403 13990 ft 294 kts 21°
2026-05-06 00:32 4.83957 -74.04714 14208 ft 317 kts 21°
2026-05-06 00:32 4.86120 -74.03974 14365 ft 340 kts 21°
2026-05-06 00:32 4.88439 -74.03182 14483 ft 363 kts 21°
2026-05-06 00:33 4.90893 -74.02349 14691 ft 379 kts 21°
2026-05-06 00:33 4.93421 -74.01496 15165 ft 386 kts 21°
2026-05-06 00:33 4.95980 -74.00636 15734 ft 390 kts 21°
2026-05-06 00:33 4.98561 -73.99768 16310 ft 393 kts 21°
2026-05-06 00:34 5.01165 -73.98889 16830 ft 397 kts 21°
2026-05-06 00:34 5.03809 -73.98063 16986 ft 398 kts 18°
2026-05-06 00:34 5.06489 -73.97346 17015 ft 399 kts 16°
2026-05-06 00:34 5.09184 -73.96699 17010 ft 399 kts 15°
2026-05-06 00:35 5.11858 -73.96085 17003 ft 399 kts 15°
2026-05-06 00:35 5.14595 -73.95454 16996 ft 398 kts 15°
2026-05-06 00:35 5.17258 -73.94824 16989 ft 398 kts 16°
2026-05-06 00:35 5.19951 -73.94169 16984 ft 398 kts 16°
2026-05-06 00:36 5.22639 -73.93501 16975 ft 398 kts 16°
2026-05-06 00:36 5.25324 -73.92827 16975 ft 398 kts 16°
2026-05-06 00:36 5.28027 -73.92146 17277 ft 402 kts 17°
2026-05-06 00:36 5.30750 -73.91464 17918 ft 405 kts 17°
2026-05-06 00:37 5.33495 -73.90776 18505 ft 409 kts 16°
2026-05-06 00:37 5.36266 -73.90085 19004 ft 412 kts 16°
2026-05-06 00:37 5.39055 -73.89391 19479 ft 415 kts 16°
2026-05-06 00:37 5.41869 -73.88691 19943 ft 418 kts 16°
2026-05-06 00:38 5.44696 -73.87987 20418 ft 420 kts 16°
2026-05-06 00:38 5.47548 -73.87275 20879 ft 423 kts 15°
2026-05-06 00:38 5.50413 -73.86561 21194 ft 426 kts 15°
2026-05-06 00:38 5.53285 -73.85849 21262 ft 426 kts 15°
2026-05-06 00:39 5.56152 -73.85186 21651 ft 429 kts 14°
2026-05-06 00:39 5.59079 -73.84569 22102 ft 431 kts 13°
2026-05-06 00:39 5.62027 -73.83981 22534 ft 434 kts 12°
2026-05-06 00:39 5.65001 -73.83399 22960 ft 436 kts 12°
2026-05-06 00:40 5.67989 -73.82812 23191 ft 438 kts 12°
2026-05-06 00:40 5.71003 -73.82209 23228 ft 447 kts 12°
2026-05-06 00:40 5.74086 -73.81578 23230 ft 457 kts 13°
2026-05-06 00:40 5.77228 -73.80928 23225 ft 463 kts 13°
2026-05-06 00:41 5.80386 -73.80275 23218 ft 464 kts 13°
2026-05-06 00:41 5.83550 -73.79622 23210 ft 464 kts 13°
2026-05-06 00:41 5.86711 -73.78970 23209 ft 464 kts 12°
2026-05-06 00:41 5.89852 -73.78218 23193 ft 463 kts 19°
2026-05-06 00:42 5.92764 -73.76871 23193 ft 462 kts 32°
2026-05-06 00:42 5.95299 -73.74914 23187 ft 460 kts 45°
2026-05-06 00:42 5.97309 -73.72487 23179 ft 460 kts 57°
2026-05-06 00:42 5.98777 -73.69585 23181 ft 459 kts 70°
2026-05-06 00:43 5.99556 -73.66525 23185 ft 459 kts 80°
2026-05-06 00:43 6.00268 -73.63407 23171 ft 459 kts 70°
2026-05-06 00:43 6.01730 -73.60567 23158 ft 459 kts 56°
2026-05-06 00:43 6.03776 -73.58114 23161 ft 459 kts 45°
2026-05-06 00:44 6.06207 -73.56051 23156 ft 459 kts 36°
2026-05-06 00:44 6.08934 -73.54366 23146 ft 460 kts 30°
2026-05-06 00:44 6.11705 -73.52772 23139 ft 460 kts 30°
2026-05-06 00:44 6.14475 -73.51180 23135 ft 460 kts 30°
2026-05-06 00:45 6.17258 -73.49589 23119 ft 460 kts 30°
2026-05-06 00:45 6.20045 -73.48003 23118 ft 460 kts 30°
2026-05-06 00:45 6.22825 -73.46428 23109 ft 460 kts 30°
2026-05-06 00:45 6.25616 -73.44851 23082 ft 458 kts 30°
2026-05-06 00:46 6.28338 -73.43314 22815 ft 440 kts 30°
2026-05-06 00:46 6.30961 -73.41829 22555 ft 425 kts 30°
2026-05-06 00:46 6.33455 -73.40417 22348 ft 411 kts 30°
2026-05-06 00:46 6.35899 -73.39035 22214 ft 396 kts 30°
2026-05-06 00:47 6.38256 -73.37698 22087 ft 382 kts 30°
2026-05-06 00:47 6.40529 -73.36405 21961 ft 369 kts 30°
2026-05-06 00:47 6.42724 -73.35157 21736 ft 357 kts 30°
2026-05-06 00:47 6.44867 -73.33941 21041 ft 350 kts 31°
2026-05-06 00:48 6.46976 -73.32743 20311 ft 346 kts 31°
2026-05-06 00:48 6.49056 -73.31560 19606 ft 342 kts 31°
2026-05-06 00:48 6.51120 -73.30386 18923 ft 339 kts 31°
2026-05-06 00:48 6.53162 -73.29224 18247 ft 336 kts 31°
2026-05-06 00:49 6.55189 -73.28074 17501 ft 332 kts 31°
2026-05-06 00:49 6.57069 -73.27007 16836 ft 329 kts 31°
2026-05-06 00:49 6.59026 -73.25897 16158 ft 325 kts 31°
2026-05-06 00:49 6.60985 -73.24787 15473 ft 322 kts 31°
2026-05-06 00:50 6.62937 -73.23678 14700 ft 323 kts 31°
2026-05-06 00:50 6.64896 -73.22561 13921 ft 324 kts 31°
2026-05-06 00:50 6.66856 -73.21445 13043 ft 324 kts 31°
2026-05-06 00:50 6.68817 -73.20328 12213 ft 323 kts 31°
2026-05-06 00:51 6.70746 -73.19230 11697 ft 312 kts 30°
2026-05-06 00:51 6.72594 -73.18183 11345 ft 297 kts 30°
2026-05-06 00:51 6.74351 -73.17186 11020 ft 283 kts 30°
2026-05-06 00:51 6.76030 -73.16234 10716 ft 270 kts 30°
2026-05-06 00:52 6.77628 -73.15325 10422 ft 258 kts 30°
2026-05-06 00:52 6.79183 -73.14438 10146 ft 256 kts 30°
2026-05-06 00:52 6.80717 -73.13563 9843 ft 249 kts 30°
2026-05-06 00:52 6.82188 -73.12722 9555 ft 237 kts 30°
2026-05-06 00:53 6.83569 -73.11935 9302 ft 226 kts 29°
2026-05-06 00:53 6.84905 -73.11176 9076 ft 214 kts 29°
2026-05-06 00:53 6.86189 -73.10448 8838 ft 210 kts 29°
2026-05-06 00:53 6.87527 -73.09903 8584 ft 207 kts 13°
2026-05-06 00:54 6.88933 -73.09751 8361 ft 200 kts 358°
2026-05-06 00:54 6.90259 -73.10005 8136 ft 191 kts 339°
2026-05-06 00:54 6.91473 -73.10491 7909 ft 185 kts 339°
2026-05-06 00:54 6.92667 -73.10956 7626 ft 183 kts 339°
2026-05-06 00:55 6.93854 -73.11407 7387 ft 182 kts 340°
2026-05-06 00:55 6.95035 -73.11853 7154 ft 181 kts 340°
2026-05-06 00:55 6.96208 -73.12294 6929 ft 177 kts 340°
2026-05-06 00:55 6.97342 -73.12720 6715 ft 171 kts 340°
2026-05-06 00:56 6.98425 -73.13127 6515 ft 166 kts 339°
2026-05-06 00:56 6.99489 -73.13527 6301 ft 161 kts 339°
2026-05-06 00:56 7.00529 -73.13918 6097 ft 158 kts 339°
2026-05-06 00:56 7.01556 -73.14304 5891 ft 157 kts 339°
2026-05-06 00:57 7.02572 -73.14686 5723 ft 156 kts 339°
2026-05-06 00:57 7.03584 -73.15067 5496 ft 155 kts 339°
2026-05-06 00:57 7.04591 -73.15445 5301 ft 154 kts 339°
2026-05-06 00:57 7.05596 -73.15823 5101 ft 154 kts 339°
2026-05-06 00:58 7.06599 -73.16200 4913 ft 154 kts 339°
2026-05-06 00:58 7.07596 -73.16575 4723 ft 153 kts 339°
2026-05-06 00:58 7.08594 -73.16951 4533 ft 152 kts 339°
2026-05-06 00:58 7.09580 -73.17321 4343 ft 151 kts 339°
2026-05-06 00:59 7.10548 -73.17686 4156 ft 151 kts 338°
2026-05-06 00:59 7.11525 -73.18054 3946 ft 150 kts 338°
2026-05-06 00:59 7.12438 -73.18403 3902 ft 125 kts 339°
2026-05-06 00:59 7.13215 -73.18695 4050 ft 129 kts 341°
2026-05-06 01:00 7.14182 -73.19040 4502 ft 159 kts 339°
2026-05-06 01:00 7.15208 -73.19435 4993 ft 159 kts 338°
2026-05-06 01:00 7.16304 -73.19882 5235 ft 181 kts 338°
2026-05-06 01:00 7.17542 -73.20390 5503 ft 203 kts 338°
2026-05-06 01:01 7.18913 -73.20948 5831 ft 219 kts 338°
2026-05-06 01:01 7.20262 -73.21687 6383 ft 225 kts 315°
2026-05-06 01:01 7.21015 -73.23053 7077 ft 228 kts 279°
2026-05-06 01:01 7.20844 -73.24638 7729 ft 235 kts 244°
2026-05-06 01:02 7.19908 -73.25980 7937 ft 235 kts 230°
2026-05-06 01:02 7.18844 -73.27229 7996 ft 234 kts 229°
2026-05-06 01:02 7.17785 -73.28443 8001 ft 234 kts 228°
2026-05-06 01:02 7.16710 -73.29676 8004 ft 234 kts 229°
2026-05-06 01:03 7.15742 -73.30985 8003 ft 233 kts 243°
2026-05-06 01:03 7.14908 -73.32375 8000 ft 233 kts 223°
2026-05-06 01:03 7.13483 -73.33071 8002 ft 232 kts 184°
2026-05-06 01:03 7.11858 -73.32854 8002 ft 241 kts 158°
2026-05-06 01:04 7.10434 -73.31970 8001 ft 242 kts 135°
2026-05-06 01:04 7.09264 -73.30751 8002 ft 243 kts 133°
2026-05-06 01:04 7.08088 -73.29528 8005 ft 243 kts 133°
2026-05-06 01:04 7.06908 -73.28309 8006 ft 243 kts 134°
2026-05-06 01:05 7.05722 -73.27088 8004 ft 249 kts 134°
2026-05-06 01:05 7.04483 -73.25812 8008 ft 263 kts 134°
2026-05-06 01:05 7.03201 -73.24490 8009 ft 265 kts 134°
2026-05-06 01:05 7.01913 -73.23160 8007 ft 266 kts 134°
2026-05-06 01:06 7.00621 -73.21827 8015 ft 266 kts 134°
2026-05-06 01:06 6.99328 -73.20496 8009 ft 266 kts 134°
2026-05-06 01:06 6.98033 -73.19163 8011 ft 266 kts 134°
2026-05-06 01:06 6.96739 -73.17829 8012 ft 266 kts 134°
2026-05-06 01:07 6.95489 -73.16538 8027 ft 250 kts 134°
2026-05-06 01:07 6.94315 -73.15323 8028 ft 235 kts 134°
2026-05-06 01:07 6.93183 -73.14152 8032 ft 232 kts 134°
2026-05-06 01:07 6.92060 -73.12992 8040 ft 232 kts 134°
2026-05-06 01:08 6.90933 -73.11827 8037 ft 232 kts 134°
2026-05-06 01:08 6.89811 -73.10667 8038 ft 232 kts 134°
2026-05-06 01:08 6.88685 -73.09503 8041 ft 232 kts 133°
2026-05-06 01:08 6.87837 -73.08180 8044 ft 230 kts 102°
2026-05-06 01:09 6.87987 -73.06625 8047 ft 227 kts 61°
2026-05-06 01:09 6.89106 -73.05562 8048 ft 227 kts 20°
2026-05-06 01:09 6.90653 -73.05508 8047 ft 227 kts 339°
2026-05-06 01:09 6.91872 -73.06487 8046 ft 229 kts 306°
2026-05-06 01:10 6.92763 -73.07822 7888 ft 230 kts 303°
2026-05-06 01:10 6.93621 -73.09183 7714 ft 230 kts 302°
2026-05-06 01:10 6.94472 -73.10541 7523 ft 229 kts 302°
2026-05-06 01:10 6.95412 -73.11817 7297 ft 226 kts 321°
2026-05-06 01:11 6.96797 -73.12532 7098 ft 225 kts 340°
2026-05-06 01:11 6.98269 -73.13074 6887 ft 225 kts 340°
2026-05-06 01:11 6.99739 -73.13622 6442 ft 229 kts 339°
2026-05-06 01:11 7.01196 -73.14169 6005 ft 216 kts 339°
2026-05-06 01:12 7.02539 -73.14674 5734 ft 195 kts 339°
2026-05-06 01:12 7.03736 -73.15124 5501 ft 173 kts 339°
2026-05-06 01:12 7.04810 -73.15528 5278 ft 157 kts 339°
2026-05-06 01:12 7.05798 -73.15899 5087 ft 148 kts 339°
2026-05-06 01:13 7.06754 -73.16259 4903 ft 145 kts 339°
2026-05-06 01:13 7.07694 -73.16612 4719 ft 143 kts 339°
2026-05-06 01:13 7.08623 -73.16962 4547 ft 143 kts 339°
2026-05-06 01:13 7.09550 -73.17310 4362 ft 141 kts 339°
2026-05-06 01:14 7.11370 -73.17994 3978 ft 140 kts 338°
2026-05-06 01:14 7.12249 -73.18328 3891 ft 123 kts 340°
2026-05-06 01:14 7.13040 -73.18607 4091 ft 131 kts 339°
2026-05-06 01:15 7.13978 -73.18976 4714 ft 156 kts 336°
2026-05-06 01:15 7.15083 -73.19452 5293 ft 189 kts 338°
2026-05-06 01:15 7.16385 -73.19942 5502 ft 211 kts 340°
2026-05-06 01:15 7.17803 -73.20448 5511 ft 219 kts 340°
2026-05-06 01:16 7.19246 -73.20959 5516 ft 220 kts 340°
2026-05-06 01:16 7.20692 -73.21469 5531 ft 221 kts 340°
2026-05-06 01:16 7.22198 -73.22000 5538 ft 248 kts 340°
2026-05-06 01:16 7.23886 -73.22597 5890 ft 263 kts 340°
2026-05-06 01:17 7.25611 -73.23209 6633 ft 271 kts 340°
2026-05-06 01:17 7.27397 -73.23849 6896 ft 272 kts 340°
2026-05-06 01:17 7.29177 -73.24490 6987 ft 272 kts 340°
2026-05-06 01:17 7.30949 -73.25153 7011 ft 272 kts 335°
2026-05-06 01:18 7.32468 -73.26269 7006 ft 272 kts 311°
2026-05-06 01:18 7.33399 -73.27906 6998 ft 273 kts 287°
2026-05-06 01:18 7.33559 -73.29802 6996 ft 273 kts 262°
2026-05-06 01:18 7.32922 -73.31590 6989 ft 274 kts 237°
2026-05-06 01:19 7.31616 -73.32969 6989 ft 274 kts 218°
2026-05-06 01:19 7.30098 -73.34144 6989 ft 275 kts 217°
2026-05-06 01:19 7.28583 -73.35315 6991 ft 275 kts 218°
2026-05-06 01:19 7.27073 -73.36485 6992 ft 275 kts 218°
2026-05-06 01:20 7.25557 -73.37660 6992 ft 275 kts 218°
2026-05-06 01:20 7.24062 -73.38819 6992 ft 275 kts 218°
2026-05-06 01:20 7.22548 -73.39994 6990 ft 275 kts 218°
2026-05-06 01:20 7.21034 -73.41168 6986 ft 275 kts 218°
2026-05-06 01:21 7.19523 -73.42342 6986 ft 275 kts 218°
2026-05-06 01:21 7.18003 -73.43522 6986 ft 286 kts 218°
2026-05-06 01:21 7.16315 -73.44834 7113 ft 322 kts 218°
2026-05-06 01:21 7.14477 -73.46261 7442 ft 346 kts 218°
2026-05-06 01:22 7.12513 -73.47784 7845 ft 363 kts 218°
2026-05-06 01:22 7.10463 -73.49320 8521 ft 371 kts 212°
2026-05-06 01:22 7.08011 -73.50288 8717 ft 391 kts 188°
2026-05-06 01:22 7.06208 -73.50305 9039 ft 397 kts 172°
2026-05-06 01:23 7.02848 -73.48872 9763 ft 402 kts 143°
2026-05-06 01:23 7.00830 -73.46932 9951 ft 402 kts 130°
2026-05-06 01:23 6.99107 -73.44724 9983 ft 401 kts 126°
2026-05-06 01:23 6.97437 -73.42475 10000 ft 401 kts 126°
2026-05-06 01:24 6.95742 -73.40247 10007 ft 401 kts 129°
2026-05-06 01:24 6.93866 -73.38170 10007 ft 401 kts 134°
2026-05-06 01:24 6.91857 -73.36230 10014 ft 401 kts 137°
2026-05-06 01:24 6.90476 -73.34985 10014 ft 401 kts 138°
2026-05-06 01:25 6.87664 -73.32520 10020 ft 401 kts 139°
2026-05-06 01:25 6.85567 -73.30664 10025 ft 401 kts 138°
2026-05-06 01:25 6.83501 -73.28790 10029 ft 401 kts 137°
2026-05-06 01:25 6.81563 -73.26771 10032 ft 400 kts 126°
2026-05-06 01:26 6.80249 -73.24358 10036 ft 400 kts 110°
2026-05-06 01:26 6.79747 -73.22540 10043 ft 399 kts 99°
2026-05-06 01:26 6.79752 -73.18864 10038 ft 395 kts 79°
2026-05-06 01:26 6.80555 -73.16326 9992 ft 371 kts 64°
2026-05-06 01:27 6.81893 -73.14199 9873 ft 351 kts 50°
2026-05-06 01:27 6.83606 -73.12541 9585 ft 338 kts 37°
2026-05-06 01:27 6.85612 -73.11361 9208 ft 330 kts 24°
2026-05-06 01:27 6.87802 -73.10691 8665 ft 326 kts
2026-05-06 01:28 6.89992 -73.10548 8299 ft 306 kts 357°
2026-05-06 01:28 6.92036 -73.10837 7910 ft 289 kts 346°
2026-05-06 01:28 6.93909 -73.11449 7434 ft 278 kts 340°
2026-05-06 01:28 6.95693 -73.12089 7074 ft 264 kts 340°
2026-05-06 01:29 6.96800 -73.12487 7029 ft 247 kts 340°
2026-05-06 01:29 6.98833 -73.13244 6828 ft 225 kts 339°
2026-05-06 01:29 7.00263 -73.13785 6599 ft 208 kts 339°
2026-05-06 01:29 7.01526 -73.14265 6403 ft 185 kts 339°
2026-05-06 01:30 7.02723 -73.14718 5900 ft 181 kts 339°
2026-05-06 01:30 7.03495 -73.15010 5562 ft 178 kts 339°
2026-05-06 01:30 7.05019 -73.15586 4844 ft 177 kts 339°
2026-05-06 01:30 7.06171 -73.16022 4266 ft 177 kts 339°
2026-05-06 01:31 7.06921 -73.16306 4005 ft 170 kts 339°
2026-05-06 01:31 7.08275 -73.16834 3880 ft 146 kts 338°
2026-05-06 01:31 7.09199 -73.17209 3960 ft 141 kts 338°
2026-05-06 01:31 7.09801 -73.17441 4039 ft 140 kts 339°
2026-05-06 01:32 7.11042 -73.17866 3999 ft 142 kts 339°
2026-05-06 01:32 7.11646 -73.18099 3906 ft 137 kts 338°
2026-05-06 01:32 7.12450 -73.18405 3897 ft 104 kts 341°
2026-05-06 01:32 7.12864 -73.18556 3911 ft 33 kts 340°
2026-05-06 01:33 7.12916 -73.18559 3912 ft 2 kts 71°
2026-05-06 01:33 7.12921 -73.18529 3912 ft 5 kts 78°
2026-05-06 01:33 7.12929 -73.18494 3912 ft 6 kts 81°
2026-05-06 01:33 7.12872 -73.18455 3910 ft 10 kts 159°
2026-05-06 01:34 7.12830 -73.18440 3908 ft 10 kts 159°
2026-05-06 01:34 7.12763 -73.18415 3904 ft 11 kts 160°
2026-05-06 01:34 7.12731 -73.18357 3903 ft 10 kts 99°
2026-05-06 01:34 7.12722 -73.18313 3901 ft 5 kts 111°
2026-05-06 01:35 7.12688 -73.18280 3900 ft 8 kts 119°
2026-05-06 01:35 7.12690 -73.18242 3899 ft 4 kts 32°
2026-05-06 01:35 7.12713 -73.18232 3899 ft 3 kts 15°
2026-05-06 01:35 7.12729 -73.18228 3900 ft 2 kts 12°
2026-05-06 01:36 7.12732 -73.18228 3900 ft 0 kts 11°